Flag for U.S.A. Weather past 2 weeks in South Bend, Indiana, U.S.A.

Now
59 °F

Sunny.


Feels Like: 56 °F
Forecast: 53 / 67 °F
Wind: 16 mph from East

Location: Michiana Regional Airport

Current Time: Apr 19, 2015 at 10:32:16 AM

Latest Report: Apr 19, 2015 at 9:54 AM


Visibility: 10 mi

Pressure: 29.86 "Hg

Humidity: 36%

Dew point: 32 °F

Location of South BendLocation

Historic Weather in South Bend — Graph

°F

South Bend temperature yesterday

Maximum temperature yesterday: 78 °F (at 2:54 PM)
Minimum temperature yesterday: 54 °F (at 6:54 AM)
Average temperature yesterday: 65 °F

Past Weeks' High & Low Weather Summary

 TemperatureHumidityPressure
High78 °F (Apr 18, 2:54 PM)100% (Apr 9, 6:54 AM)30.31 "Hg (Apr 9, 6:54 AM)
Low32 °F (Apr 4, 8:54 AM)13% (Apr 5, 4:54 PM)29.47 "Hg (Apr 10, 12:54 AM)
Average55 °F55%30.06 "Hg
* Reported Apr 4 8:54 AM — Apr 19 8:54 AM, South Bend, Weather by CustomWeather, © 2015

Note: Actual official high and low records may vary slightly from our data, if they occured in-between our weather recording intervals... More about our weather records

Advertising

South Bend weather history for previous 24 hours

 ConditionsComfort  
Time TempWeatherWind HumidityBarometerVisibility
8:54 AM
Sun, Apr 19
55 °FSunny.15 mph37%29.89 "Hg10 mi
7:54 AM54 °FClear.14 mph35%29.91 "Hg10 mi
6:54 AM54 °FClear.15 mph35%29.93 "Hg10 mi
5:54 AM55 °FClear.13 mph35%29.94 "Hg10 mi
4:54 AM55 °FClear.14 mph35%29.95 "Hg10 mi
3:54 AM56 °FClear.13 mph33%29.96 "Hg10 mi
2:54 AM57 °FClear.15 mph29%29.98 "Hg10 mi
1:54 AM58 °FClear.15 mph25%30.01 "Hg10 mi
12:54 AM59 °FClear.18 mph23%30.01 "Hg10 mi
11:54 PM
Sat, Apr 18
61 °FPassing clouds.15 mph23%30.03 "Hg10 mi
10:54 PM63 °FClear.15 mph30%30.05 "Hg10 mi
9:54 PM66 °FClear.17 mph36%30.02 "Hg10 mi
9:04 PM70 °FScattered clouds.14 mph42%30.01 "Hg10 mi
8:54 PM70 °FPassing clouds.17 mph42%29.99 "Hg10 mi
7:54 PM61 °FSunny.5 mph56%29.98 "Hg10 mi
6:54 PM66 °FPartly sunny.8 mph47%29.99 "Hg10 mi
5:54 PM72 °FPartly sunny.9 mph41%29.98 "Hg10 mi
4:54 PM77 °FScattered clouds.5 mph33%29.98 "Hg10 mi
3:54 PM78 °FScattered clouds.5 mph35%30.00 "Hg10 mi
2:54 PM78 °FSunny.No wind30%30.02 "Hg10 mi
1:54 PM77 °FSunny.7 mph35%30.03 "Hg10 mi
12:54 PM75 °FSunny.7 mph39%30.03 "Hg10 mi
11:54 AM75 °FSunny.7 mph39%30.03 "Hg10 mi
10:54 AM72 °FSunny.8 mph44%30.04 "Hg10 mi
Weather by CustomWeather, © 2015

See weather overviewHow to use our weather pages